Погода в Уральске

Хотите узнать прогноз погоды в Уральске? Тогда Вам сюда: Погода в Уральске

Поиск расширенной информации на нашем сайте:

Полезная информация:

Новости сайта



02.01.2020
Опубликован Долгосрочный прогноз погоды по городам России и ближнего зарубежья на январь 2020 года.
Карты: Прогноз на январь и февраль 2020 года, Сравнение прогнозируемой аномалии приземной температуры воздуха на январь 2020 года по разным моделям.




Погода в Уральске - сегодня

Время (UTC), дата Ветер
(°,м/с) 
Видим.   Явления Облачность Т
(°С)
Тd
(°С)
f(%) Тe
(°С)
Pmin
(гПа)
dP
(гПа)
Po
(мм)
O2
(г/м3)
Тmin Tmax R s Состояние
почвы
12 22.10.21 200 (Ю) 10 км    10/0 средняя, верхняя 
[Ac As|Cs]
+15.6 +5.3 50 +15  1010  -0.9  754  287           
15 22.10.21 220 (ЮЗ) н/о    ясно 
+12.9 +4.6 57 +12  1011.1  755  290    +15.7       
18 22.10.21 200 (Ю) н/о    1/0 верхняя 
[Ci fib]
+10.9 +4.7 66 +10  1012.1  756  292    +15.7       
21 22.10.21 220 (ЮЗ) н/о    3/0 верхняя 
[Ci fib]
+8.2 +3 70 +8  1013.2  757  295           
00 23.10.21 200 (Ю) н/о    8/0 средняя 
[Ac trans]
+6.9 +3.3 78 +6  1013.9  0.7  757  297           
03 23.10.21 210 (ЮЗ) н/о    10/0 средняя, верхняя 
[Ac trans|Ci fib]
+5.7 +3.8 88 +5  1014.9  758  299           
06 23.10.21 220 (ЮЗ) 10 км    9/0 средняя, верхняя 
[Ac As|Ci fib]
+10.1 +7.1 82 +10  1016.1  1.3  759  294  +5.7         
09 23.10.21 190 (Ю) 10 км    9/0 средняя, верхняя 
[Ac As|Ci fib]
+14.4 +8.5 68 +14  1016  -0.1  759  289           
12 23.10.21 200 (Ю) 10 км    8/0 средняя, верхняя 
[Ac lent|Ci fib]
+16 +8.5 61 +16  1016.2  0.2  759  287           
15 23.10.21 190 (Ю) н/о    9/0 средняя, верхняя 
[Ac As|Ci fib]
+12.9 +7.8 71 +13  1017  0.8  759  291    +16.4       
18 23.10.21 160 (Ю) н/о    10/0 средняя 
[Ac As]
+11.3 +7.3 76 +12  1016.2  -0.8  759  292    +16.4       
21 23.10.21 130 (ЮВ) н/о    10/0 средняя 
[Ac As]
+10 +7 82 +11  1014.1  -2.1  757  293           
00 24.10.21 180 (Ю) н/о    10/0 средняя 
[Ac As]
+9.9 +7.2 83 +9  1012.5  -1.6  756  293           
03 24.10.21 230 (ЮЗ) н/о  слаб. дождь  10/10 600 м 
[Ns]
+9.7 +8.5 92 +10  1012.8  0.3  756  293      0.3     
06 24.10.21 210 (ЮЗ) 10 км  {дождь}  10/10 600 м 
[Ns]
+10.7 +9.9 95 +11  1013.9  1.1  757  292  +9.7    0.3     
09 24.10.21 240 (ЮЗ) 10 км    10/10 600 м 
[Sc]
+12.5 +10 85 +13  1014.6  0.7  758  290           
12 24.10.21 310 (СЗ) 10 км    9/0 средняя, верхняя 
[As trans|Ci fib]
+11.9 +5.1 63 +12  1015.5  0.9  758  292           
15 24.10.21 270 (З) н/о    8/0 средняя 
[Ac lent]
+5.7 +1.7 75 +7  1016.5  0.9  759  299    +13.7       
18 24.10.21 240 (ЮЗ) н/о    8/0 средняя 
[Ac und]
+4.3 +0.6 77 +5  1016.7  0.2  759  301    +13.7  0.8     
21 24.10.21 тихо ()   н/о    9/0 средняя 
[Ac und]
+3.8 +0.6 80 +4  1016.6  -0.2  759  302           
00 25.10.21 тихо ()   н/о    10/10 600 м 
[Sc|Ac und]
+3.7 +1.4 85 +4  1015.6  -0.9  758  301           
03 25.10.21 280 (З) н/о    9/9 600 м 
[Sc]
+3.3 +1.8 90 +4  1015.2  -0.5  758  301           
06 25.10.21 280 (З) 10 км    9/8 600 м средняя 
[Sc|Ac lent]
+5.5 +2.3 80 +4  1015.9  0.8  759  299  +3.3         
09 25.10.21 290 (З) 10 км    9/6 600 м кучево-дожд., средняя 
[Cb cap|Ac As]
+7.6 +2.5 70 +6  1016.9  759  297           
12 25.10.21 280 (З) 10 км    8/8 600 м кучево-дожд. 
[Cb cap]
+7.1 +1.5 68 +6  1018.3  1.4  760  298           
Время (UTC), дата Ветер
(°,м/с) 
Видим.   Явления Облачность Т
(°С)
Тd
(°С)
f(%) Тe
(°С)
Pmin
(гПа)
dP
(гПа)
Po
(мм)
O2
(г/м3)
Тmin Tmax R s Состояние
почвы

Для получения пояснительной информации подведите курсор к названию столбца.

ПОГОДА в Уральске - архив

Всё, что Вы хотите узнать о погоде в Уральске - удобно и подробно!

Выберите нужную дату (начиная с 1 января 2019* года) и нажмите кнопку "Найти".
Будут отображены архивные сводки погоды по пункту Уральск, начиная с указанной даты.


Отображать данные в формате CSV (для использования в таблицах Excel)


Внимание! Наш архив погоды предназначен исключительно для личного некоммерческого использования в познавательных целях. Если Вам необходимы официальные справки о состоянии погоды (для производственных, юридических, коммерческих и т.п. целей), обращайтесь в органы Росгидромета.

*Примечание: данная дата относится к архиву по метеостанциям СССР (Россия, СНГ, Балтия).
Архив по метеостанциям Зарубежной Европы и Азии (кроме Китая) хранится 10 дней, по другим регионам земного шара (Китай, Африка, Америка, Австралия, Океания) - 1 день.

Уральск - район местоположения метеостанции


Название, широта, долгота, высота метеостанции:
Уральск (город) 51.2°ш. 51.3°д. 37 м над ур. моря [Казахстан]

Дополнительная информация

В oтличие oт бoльшинства пoгoдных сайтoв мы публикуем пoдрoбную метеoинфoрмацию в детальнoм прoфессиoнальнoм фoрмате.

Характеристики температуры и влажнoсти вoздуха измеряются на высoте 2 м в тени вдали oт зданий и деревьев.
Скoрoсть ветра измеряется на высoте 10 м (на урoвне рoста челoвека скoрoсть ветра ниже в 1.5-2 раза). Если метеoстанция нахoдится в гoрoде или в лесу, тo скoрoсть ветра занижена на 2-4 м/с пo сравнению с oткрытым местoм. Скoрoсть ветра над акватoриями крупных рек и oзёр, а также на вершинах хoлмoв на 2-5 м/с выше, чем в oбычных услoвиях.
Атмoсфернoе давление в разных тoчках местнoсти мoжет значительнo oтличаться oт давления на метеoстанции, в зависимoсти oт услoвий рельефа (при пoдъёме на 10 м давление пoнижается примернo на 1 мм рт.ст.).